"startDT [UTC]","vpos","CH4 [ppm]","stdev(CH4) [ppm]","CO2 [ppm]","stdev(CO2) [ppm]","H2O [ppm]","stdev(H2O)","p_LGR [torr]","T_LGR [C]","mt1_LGR [us]","mt2_LGR [us]","T_ECpre [C]","T_EC1 [C]","T_EC2 [C]","p_inlet [hPa]","p_in [hPa]","p_out [hPa]","T_inlet [C]","RH_inlet [%]","dwpt_inlet [C]","T_vent [C]","RH_vent [%]","dwpt_vent [C]","flow_vent [l min-1]","flow_inlet [l min-1]","dwpt_sample [C]","T_room [C]"
2012-08-25 00:00:00,1.0,1.9185,0.0386,380.04,4.47,301.0,36.2,138.04,31.69,24.66,36.54,0.97,7.85,-26.21,-47,-6,-928,26.6,24.1,4.4,26.4,1.5,-30.0,5.73,2.40,-26.6,30.8
2012-08-25 00:01:00,1.0,1.8827,0.0008,375.83,0.29,321.4,33.8,138.04,31.69,24.66,36.55,0.95,8.25,-26.20,-47,-5,-928,26.6,23.8,4.2,26.4,1.4,-30.3,5.73,2.39,-26.6,30.8
2012-08-25 00:02:00,1.0,1.8826,0.0008,375.78,0.25,299.8,32.0,138.04,31.69,24.66,36.55,0.94,8.64,-26.20,-47,-5,-928,26.6,23.7,4.2,26.4,1.4,-30.3,5.73,2.40,-26.9,30.8
2012-08-25 00:03:00,1.0,1.8824,0.0009,375.85,0.27,269.0,31.4,138.04,31.69,24.66,36.55,0.94,9.02,-26.19,-47,-5,-928,26.6,23.3,3.9,26.4,1.4,-30.4,5.73,2.40,-27.3,30.8
2012-08-25 00:04:00,1.0,1.8825,0.0010,375.77,0.32,240.0,34.3,138.04,31.70,24.66,36.55,0.95,9.39,-26.19,-47,-5,-928,26.6,23.4,4.0,26.4,1.4,-30.4,5.73,2.41,-27.8,30.9
2012-08-25 00:05:00,0.0,1.9552,0.0362,384.58,4.36,147.2,54.3,138.04,31.70,24.66,36.54,0.97,9.75,-26.19,-51,38,-928,26.6,23.6,4.1,26.4,1.4,-30.3,5.73,2.53,-29.5,30.8
2012-08-25 00:06:00,0.0,1.9864,0.0012,388.09,0.33,149.0,31.9,138.04,31.70,24.66,36.55,0.94,10.08,-26.18,-51,38,-928,26.6,23.8,4.3,26.4,1.5,-30.0,5.73,2.55,-28.5,30.8
2012-08-25 00:07:00,0.0,1.9799,0.0016,387.48,0.35,189.5,29.2,138.04,31.70,24.66,36.55,0.94,10.40,-26.18,-51,38,-928,26.6,23.3,3.9,26.4,1.5,-29.8,5.73,2.57,-28.1,30.8
2012-08-25 00:08:00,0.0,1.9841,0.0018,388.05,0.40,204.0,30.5,138.04,31.70,24.66,36.54,0.94,10.72,-26.17,-51,38,-928,26.6,23.4,4.0,26.5,1.5,-29.7,5.73,2.56,-27.9,30.8
2012-08-25 00:09:00,0.0,1.9852,0.0011,388.30,0.28,208.2,29.3,138.04,31.71,24.66,36.54,0.94,11.03,-26.16,-51,38,-928,26.7,23.6,4.2,26.5,1.5,-29.7,5.73,2.54,-27.7,30.8
2012-08-25 00:10:00,0.0,1.9848,0.0009,388.19,0.31,223.0,29.6,138.04,31.71,24.66,36.54,0.95,11.32,-26.15,-51,38,-928,26.7,23.8,4.3,26.5,1.5,-29.7,5.73,2.54,-27.6,30.9
2012-08-25 00:11:00,0.0,1.9831,0.0013,388.04,0.31,223.2,29.8,138.04,31.71,24.66,36.54,0.95,11.60,-26.14,-51,38,-928,26.7,23.5,4.1,26.5,1.5,-29.7,5.73,2.56,-27.5,30.9
2012-08-25 00:12:00,0.0,1.9834,0.0011,388.06,0.31,227.8,33.4,138.04,31.71,24.66,36.54,0.94,11.87,-26.13,-51,38,-928,26.7,23.5,4.1,26.5,1.5,-29.7,5.73,2.57,-27.5,30.9
2012-08-25 00:13:00,0.0,1.9819,0.0010,387.92,0.29,234.6,28.8,138.04,31.72,24.66,36.54,0.94,12.14,-26.12,-51,38,-929,26.7,23.4,4.1,26.5,1.5,-29.7,5.73,2.54,-27.5,30.9
2012-08-25 00:14:00,0.0,1.9822,0.0010,387.92,0.26,229.4,32.2,138.04,31.72,24.66,36.54,0.94,12.39,-26.11,-51,38,-928,26.7,23.6,4.2,26.5,1.5,-29.8,5.73,2.54,-27.4,30.9
2012-08-25 00:15:00,0.0,1.9778,0.0015,387.59,0.28,232.9,26.6,138.04,31.72,24.66,36.54,0.93,12.63,-26.10,-51,38,-928,26.7,23.2,4.0,26.5,1.5,-29.7,5.73,2.56,-27.4,30.9
2012-08-25 00:16:00,0.0,1.9796,0.0010,387.70,0.26,236.6,28.1,138.04,31.72,24.66,36.54,0.96,12.87,-26.09,-51,38,-929,26.7,23.3,4.1,26.5,1.5,-29.7,5.73,2.57,-27.4,30.9
2012-08-25 00:17:00,0.0,1.9772,0.0015,387.39,0.29,243.9,28.1,138.04,31.72,24.66,36.54,0.95,13.09,-26.08,-51,38,-928,26.7,23.2,4.0,26.5,1.5,-29.7,5.73,2.55,-27.4,30.9
2012-08-25 00:18:00,0.0,1.9758,0.0009,387.07,0.32,235.0,33.1,138.04,31.72,24.66,36.55,0.93,13.30,-26.07,-51,38,-928,26.7,23.6,4.2,26.5,1.5,-29.7,5.73,2.54,-27.4,30.9
2012-08-25 00:19:00,0.0,1.9743,0.0009,387.11,0.33,236.9,31.9,138.04,31.72,24.66,36.54,0.95,13.51,-26.06,-51,38,-928,26.7,23.5,4.1,26.5,1.5,-29.7,5.73,2.56,-27.4,30.9
2012-08-25 00:20:00,0.0,1.9735,0.0012,387.01,0.31,233.4,29.3,138.04,31.73,24.66,36.54,0.94,13.71,-26.05,-51,38,-928,26.7,23.5,4.2,26.5,1.5,-29.7,5.73,2.57,-27.4,30.9
2012-08-25 00:21:00,0.0,1.9705,0.0012,386.51,0.26,236.4,31.2,138.04,31.73,24.66,36.55,0.93,13.89,-26.05,-51,38,-928,26.7,23.5,4.2,26.5,1.5,-29.7,5.73,2.55,-27.4,30.9
2012-08-25 00:22:00,0.0,1.9699,0.0009,386.49,0.30,241.0,31.5,138.04,31.73,24.66,36.55,0.95,14.09,-26.04,-51,38,-928,26.7,23.5,4.2,26.5,1.5,-29.7,5.73,2.54,-27.4,30.9
2012-08-25 00:23:00,0.0,1.9692,0.0010,386.58,0.32,242.3,31.6,138.04,31.73,24.66,36.54,0.94,14.26,-26.03,-51,38,-929,26.7,23.4,4.1,26.5,1.5,-29.7,5.73,2.55,-27.4,30.9
2012-08-25 00:24:00,0.0,1.9689,0.0010,386.34,0.32,241.6,33.7,138.04,31.73,24.66,36.55,0.94,14.44,-26.02,-51,38,-928,26.7,23.4,4.1,26.5,1.5,-29.7,5.73,2.57,-27.4,30.9
2012-08-25 00:25:00,0.0,1.9688,0.0011,386.45,0.35,235.8,27.4,138.04,31.73,24.66,36.54,0.96,14.59,-26.01,-51,38,-928,26.7,23.2,4.0,26.5,1.5,-29.7,5.73,2.56,-27.3,30.9
2012-08-25 00:26:00,0.0,1.9684,0.0010,386.35,0.29,231.1,24.6,138.04,31.73,24.65,36.54,0.94,14.76,-26.01,-51,38,-928,26.7,23.5,4.2,26.5,1.5,-29.7,5.73,2.54,-27.3,30.9
2012-08-25 00:27:00,0.0,1.9678,0.0010,386.14,0.31,242.4,32.7,138.04,31.73,24.66,36.54,0.94,14.90,-26.00,-51,38,-929,26.7,23.7,4.3,26.5,1.5,-29.7,5.73,2.55,-27.3,30.9
2012-08-25 00:28:00,0.0,1.9678,0.0011,386.21,0.30,239.4,32.1,138.04,31.73,24.66,36.54,0.94,15.04,-25.99,-51,38,-929,26.7,23.7,4.3,26.5,1.5,-29.7,5.73,2.57,-27.3,30.9
2012-08-25 00:29:00,0.0,1.9675,0.0010,386.25,0.32,236.5,29.2,138.04,31.74,24.66,36.54,0.94,15.18,-25.99,-51,38,-928,26.7,23.6,4.2,26.5,1.5,-29.7,5.73,2.56,-27.3,30.9
2012-08-25 00:30:00,0.0,1.9678,0.0009,386.37,0.32,236.6,22.6,138.04,31.74,24.66,36.54,0.94,15.32,-25.98,-51,38,-928,26.7,23.3,4.1,26.5,1.5,-29.7,5.73,2.54,-27.3,30.9
2012-08-25 00:31:00,0.0,1.9678,0.0010,386.23,0.31,236.4,32.1,138.04,31.74,24.66,36.54,0.95,15.44,-25.97,-51,38,-929,26.7,23.4,4.1,26.5,1.5,-29.7,5.73,2.54,-27.3,30.9
2012-08-25 00:32:00,0.0,1.9678,0.0011,386.28,0.29,236.2,34.6,138.04,31.74,24.66,36.54,0.94,15.56,-25.97,-51,38,-929,26.7,23.3,4.1,26.6,1.5,-29.7,5.73,2.57,-27.3,30.9
2012-08-25 00:33:00,0.0,1.9672,0.0009,386.13,0.30,242.4,34.6,138.04,31.74,24.66,36.54,0.94,15.67,-25.96,-51,38,-928,26.7,23.7,4.3,26.6,1.5,-29.7,5.73,2.57,-27.3,30.9
2012-08-25 00:34:00,0.0,1.9667,0.0008,386.28,0.27,246.6,32.6,138.04,31.74,24.66,36.54,0.94,15.78,-25.96,-51,38,-928,26.7,23.6,4.2,26.5,1.5,-29.7,5.73,2.55,-27.3,30.9
2012-08-25 00:35:00,0.0,1.9672,0.0008,386.16,0.28,242.1,34.3,138.04,31.75,24.66,36.55,0.95,15.89,-25.95,-51,38,-929,26.7,23.4,4.1,26.5,1.5,-29.7,5.73,2.54,-27.3,30.9
2012-08-25 00:36:00,0.0,1.9667,0.0010,386.19,0.29,248.3,34.3,138.04,31.75,24.66,36.54,0.95,15.99,-25.94,-51,38,-929,26.7,23.7,4.3,26.6,1.5,-29.7,5.73,2.56,-27.3,30.9
2012-08-25 00:37:00,0.0,1.9668,0.0010,386.20,0.32,239.0,31.1,138.04,31.75,24.66,36.54,0.94,16.09,-25.94,-51,38,-928,26.7,23.6,4.3,26.5,1.5,-29.7,5.73,2.57,-27.3,30.9
2012-08-25 00:38:00,0.0,1.9671,0.0009,386.32,0.32,243.9,23.2,138.04,31.75,24.66,36.54,0.94,16.18,-25.93,-51,38,-928,26.7,23.5,4.2,26.6,1.5,-29.7,5.73,2.55,-27.3,30.9
2012-08-25 00:39:00,0.0,1.9671,0.0010,386.18,0.35,238.4,28.7,138.04,31.75,24.66,36.54,0.95,16.26,-25.93,-51,38,-929,26.8,23.4,4.1,26.6,1.5,-29.7,5.73,2.54,-27.3,31.0
2012-08-25 00:40:00,0.0,1.9664,0.0009,386.01,0.33,233.9,31.8,138.04,31.76,24.66,36.54,0.95,16.35,-25.92,-51,38,-929,26.7,23.9,4.4,26.6,1.5,-29.7,5.73,2.55,-27.3,30.9
2012-08-25 00:41:00,0.0,1.9666,0.0009,386.10,0.29,243.7,27.0,138.04,31.76,24.66,36.54,0.94,16.43,-25.91,-51,38,-928,26.7,23.7,4.3,26.6,1.5,-29.7,5.73,2.57,-27.3,31.0
2012-08-25 00:42:00,0.0,1.9667,0.0008,386.18,0.31,241.8,26.7,138.04,31.76,24.65,36.54,0.95,16.51,-25.91,-51,38,-928,26.8,23.4,4.1,26.6,1.5,-29.7,5.73,2.56,-27.3,31.0
2012-08-25 00:43:00,0.0,1.9667,0.0010,386.24,0.28,239.7,30.8,138.04,31.76,24.66,36.54,0.96,16.59,-25.91,-51,38,-929,26.8,23.3,4.1,26.5,1.5,-29.7,5.73,2.54,-27.3,31.0
2012-08-25 00:44:00,0.0,1.9666,0.0009,386.15,0.24,242.4,27.3,138.04,31.76,24.66,36.54,0.95,16.66,-25.90,-51,38,-928,26.8,23.5,4.2,26.6,1.5,-29.7,5.73,2.55,-27.3,31.0
2012-08-25 00:45:00,0.0,1.9662,0.0011,386.09,0.33,235.6,28.5,138.04,31.76,24.66,36.54,0.94,16.72,-25.90,-51,38,-928,26.8,23.7,4.3,26.6,1.5,-29.7,5.73,2.57,-27.3,31.0
2012-08-25 00:46:00,0.0,1.9664,0.0012,386.13,0.30,239.2,30.8,138.04,31.76,24.66,36.54,0.95,16.79,-25.89,-51,38,-928,26.8,23.5,4.2,26.5,1.5,-29.7,5.73,2.57,-27.3,30.9
2012-08-25 00:47:00,0.0,1.9664,0.0009,386.07,0.32,249.8,30.6,138.04,31.77,24.66,36.54,0.94,16.85,-25.89,-51,38,-929,26.8,23.4,4.2,26.6,1.5,-29.7,5.73,2.54,-27.3,31.0
2012-08-25 00:48:00,0.0,1.9666,0.0010,386.19,0.31,241.5,29.5,138.04,31.77,24.66,36.54,0.95,16.91,-25.88,-51,38,-928,26.8,23.4,4.2,26.5,1.5,-29.7,5.73,2.54,-27.3,31.0
2012-08-25 00:49:00,0.0,1.9659,0.0009,385.84,0.31,238.1,29.6,138.04,31.77,24.66,36.54,0.95,16.97,-25.88,-51,38,-928,26.8,23.8,4.4,26.6,1.5,-29.7,5.73,2.57,-27.3,31.0
2012-08-25 00:50:00,0.0,1.9662,0.0007,386.06,0.34,245.0,27.3,138.04,31.77,24.66,36.54,0.95,17.03,-25.87,-51,38,-929,26.8,23.6,4.3,26.6,1.5,-29.7,5.73,2.57,-27.3,31.0
2012-08-25 00:51:00,0.0,1.9664,0.0010,386.07,0.28,235.1,32.6,138.04,31.77,24.66,36.55,0.94,17.08,-25.87,-51,38,-929,26.8,23.3,4.1,26.5,1.5,-29.7,5.73,2.55,-27.3,31.0
2012-08-25 00:52:00,0.0,1.9660,0.0008,386.10,0.32,244.9,30.6,138.04,31.77,24.66,36.54,0.95,17.13,-25.87,-51,38,-928,26.8,23.4,4.1,26.6,1.5,-29.7,5.73,2.54,-27.3,31.0
2012-08-25 00:53:00,0.0,1.9656,0.0008,386.09,0.33,238.6,33.2,138.04,31.77,24.66,36.54,0.94,17.18,-25.86,-51,38,-928,26.8,23.6,4.3,26.6,1.5,-29.7,5.73,2.56,-27.3,30.9
2012-08-25 00:54:00,0.0,1.9660,0.0008,386.06,0.28,246.9,33.8,138.04,31.77,24.66,36.54,0.95,17.22,-25.85,-51,38,-929,26.8,23.6,4.2,26.6,1.5,-29.7,5.73,2.57,-27.3,30.9
2012-08-25 00:55:00,0.0,1.9656,0.0008,385.86,0.32,237.1,27.4,138.04,31.78,24.66,36.54,0.94,17.27,-25.86,-51,38,-929,26.8,23.9,4.4,26.6,1.5,-29.7,5.73,2.54,-27.3,30.9
2012-08-25 00:56:00,0.0,1.9661,0.0009,386.00,0.23,248.6,32.8,138.04,31.78,24.65,36.54,0.94,17.31,-25.86,-51,38,-928,26.8,23.9,4.4,26.6,1.5,-29.7,5.73,2.54,-27.3,30.9
2012-08-25 00:57:00,0.0,1.9659,0.0009,385.98,0.33,237.7,29.5,138.04,31.78,24.66,36.55,0.94,17.36,-25.85,-51,38,-929,26.8,24.1,4.5,26.6,1.5,-29.7,5.73,2.57,-27.3,30.9
2012-08-25 00:58:00,0.0,1.9659,0.0008,386.04,0.32,239.4,30.1,138.04,31.78,24.66,36.54,0.95,17.39,-25.85,-51,38,-929,26.8,24.1,4.6,26.6,1.5,-29.7,5.73,2.57,-27.3,31.0
2012-08-25 00:59:00,0.0,1.9662,0.0008,386.01,0.28,235.6,33.9,138.04,31.78,24.66,36.54,0.95,17.43,-25.84,-51,38,-928,26.8,24.0,4.5,26.6,1.5,-29.7,5.73,2.54,-27.3,31.0
2012-08-25 01:00:00,0.0,1.9661,0.0008,385.82,0.30,242.6,28.2,138.04,31.78,24.66,36.55,0.95,17.46,-25.84,-51,38,-928,26.8,24.1,4.6,26.6,1.5,-29.7,5.73,2.55,-27.3,31.0
2012-08-25 01:01:00,0.0,1.9662,0.0008,385.87,0.26,229.8,31.8,138.04,31.78,24.65,36.54,0.94,17.50,-25.83,-52,38,-928,26.8,24.2,4.6,26.6,1.5,-29.7,5.73,2.57,-27.3,31.0
2012-08-25 01:02:00,0.0,1.9666,0.0010,385.86,0.28,244.5,26.3,138.04,31.78,24.66,36.54,0.95,17.53,-25.83,-51,38,-929,26.8,24.0,4.5,26.6,1.5,-29.7,5.73,2.56,-27.3,31.0
2012-08-25 01:03:00,0.0,1.9663,0.0010,385.75,0.26,245.5,32.4,138.04,31.78,24.66,36.55,0.94,17.57,-25.83,-51,38,-928,26.8,24.3,4.7,26.6,1.5,-29.7,5.73,2.54,-27.3,31.0
2012-08-25 01:04:00,0.0,1.9661,0.0008,385.90,0.37,248.1,26.1,138.04,31.78,24.66,36.55,0.95,17.60,-25.83,-51,38,-928,26.8,24.0,4.5,26.6,1.5,-29.7,5.73,2.55,-27.3,31.0
2012-08-25 01:05:00,0.0,1.9665,0.0009,385.99,0.28,241.7,29.0,138.04,31.78,24.66,36.54,0.95,17.62,-25.82,-51,38,-928,26.8,23.7,4.4,26.6,1.5,-29.6,5.73,2.58,-27.3,31.0
2012-08-25 01:06:00,0.0,1.9663,0.0009,385.88,0.26,243.6,29.8,138.04,31.78,24.66,36.55,0.94,17.65,-25.82,-51,38,-929,26.8,23.8,4.4,26.6,1.5,-29.7,5.73,2.56,-27.2,31.0
2012-08-25 01:07:00,0.0,1.9661,0.0008,385.84,0.25,244.3,30.1,138.04,31.79,24.66,36.55,0.94,17.68,-25.82,-51,38,-929,26.8,23.8,4.4,26.6,1.5,-29.6,5.73,2.54,-27.3,31.0
2012-08-25 01:08:00,0.0,1.9667,0.0009,385.86,0.30,246.7,34.4,138.04,31.79,24.66,36.54,0.95,17.71,-25.83,-51,38,-928,26.8,23.9,4.4,26.6,1.5,-29.7,5.73,2.56,-27.3,31.0
2012-08-25 01:09:00,0.0,1.9667,0.0011,385.85,0.37,249.8,30.1,138.04,31.79,24.66,36.54,0.95,17.73,-25.81,-51,38,-928,26.8,23.8,4.4,26.6,1.5,-29.7,5.73,2.57,-27.3,31.0
2012-08-25 01:10:00,0.0,1.9664,0.0011,385.84,0.32,237.1,32.7,138.04,31.79,24.66,36.54,0.94,17.75,-25.83,-51,38,-929,26.8,23.7,4.4,26.6,1.5,-29.7,5.73,2.55,-27.3,31.0
2012-08-25 01:11:00,0.0,1.9666,0.0011,385.87,0.30,242.3,30.0,138.04,31.79,24.65,36.54,0.94,17.77,-25.81,-51,38,-929,26.8,23.7,4.3,26.6,1.5,-29.7,5.73,2.54,-27.3,31.0
2012-08-25 01:12:00,0.0,1.9671,0.0009,385.90,0.31,242.3,27.3,138.04,31.79,24.65,36.54,0.94,17.79,-25.81,-51,38,-928,26.8,23.6,4.3,26.6,1.5,-29.7,5.73,2.57,-27.3,31.0
2012-08-25 01:13:00,0.0,1.9667,0.0008,385.77,0.33,246.4,29.4,138.04,31.79,24.66,36.55,0.95,17.80,-25.81,-51,38,-928,26.8,23.6,4.3,26.6,1.5,-29.7,5.73,2.57,-27.3,31.0
2012-08-25 01:14:00,0.0,1.9665,0.0009,385.79,0.30,238.7,30.0,138.04,31.79,24.66,36.54,0.95,17.83,-25.81,-51,38,-928,26.8,23.8,4.4,26.6,1.5,-29.7,5.73,2.54,-27.3,31.0
2012-08-25 01:15:00,0.0,1.9668,0.0009,385.71,0.32,244.2,29.4,138.04,31.79,24.66,36.55,0.94,17.85,-25.81,-51,38,-929,26.8,23.8,4.4,26.6,1.5,-29.7,5.73,2.55,-27.3,31.0
2012-08-25 01:16:00,0.0,1.9669,0.0010,385.89,0.32,236.8,30.2,138.04,31.79,24.66,36.54,0.95,17.86,-25.81,-51,38,-928,26.8,23.8,4.4,26.6,1.5,-29.7,5.73,2.58,-27.3,31.0
2012-08-25 01:17:00,0.0,1.9663,0.0008,385.69,0.33,244.1,25.8,138.04,31.80,24.66,36.54,0.96,17.88,-25.80,-51,38,-928,26.8,23.9,4.5,26.6,1.5,-29.7,5.73,2.56,-27.3,31.0
2012-08-25 01:18:00,0.0,1.9665,0.0011,385.87,0.33,246.7,32.6,138.04,31.80,24.66,36.53,0.95,17.90,-25.80,-51,38,-929,26.8,23.9,4.5,26.6,1.5,-29.7,5.73,2.54,-27.3,31.0
2012-08-25 01:19:00,0.0,1.9665,0.0009,385.88,0.30,240.7,34.5,138.04,31.80,24.66,36.54,0.95,17.92,-25.80,-51,38,-929,26.8,23.8,4.4,26.6,1.5,-29.7,5.73,2.56,-27.3,31.0
2012-08-25 01:20:00,0.0,1.9669,0.0009,385.88,0.26,241.8,26.3,138.04,31.80,24.66,36.54,0.97,17.94,-25.80,-51,38,-929,26.8,23.7,4.3,26.6,1.5,-29.7,5.73,2.57,-27.3,31.0
2012-08-25 01:21:00,0.0,1.9673,0.0009,385.63,0.29,237.0,31.8,138.04,31.80,24.66,36.54,0.95,17.95,-25.80,-51,38,-928,26.8,24.1,4.6,26.6,1.5,-29.7,5.73,2.55,-27.3,31.0
2012-08-25 01:22:00,1.0,1.9122,0.0306,379.24,3.74,276.3,40.5,138.04,31.80,24.65,36.55,0.95,17.96,-25.80,-47,-6,-929,26.8,24.2,4.6,26.6,1.4,-30.0,5.73,2.40,-26.9,30.9
2012-08-25 01:23:00,1.0,1.8830,0.0009,375.82,0.29,306.2,32.3,138.04,31.80,24.66,36.55,0.98,17.95,-25.79,-48,-6,-929,26.8,24.3,4.7,26.6,1.4,-30.3,5.73,2.41,-26.9,30.9
2012-08-25 01:24:00,1.0,1.8827,0.0008,375.83,0.27,275.2,25.8,138.04,31.80,24.66,36.55,1.18,16.92,-25.81,-48,-6,-929,26.8,24.2,4.7,26.6,1.4,-30.3,5.73,2.41,-27.2,30.9
2012-08-25 01:25:00,1.0,1.8830,0.0009,375.67,0.26,248.1,36.1,138.04,31.80,24.66,36.55,1.15,14.80,-25.81,-48,-6,-928,26.8,24.2,4.6,26.6,1.4,-30.2,5.73,2.40,-27.7,31.0
2012-08-25 01:26:00,1.0,1.8831,0.0009,375.77,0.32,222.0,35.6,138.04,31.79,24.66,36.55,1.00,12.46,-25.82,-48,-6,-928,26.8,24.3,4.7,26.6,1.4,-30.3,5.73,2.40,-28.1,31.0
2012-08-25 01:27:00,1.0,1.8828,0.0009,375.73,0.30,185.9,36.4,138.04,31.79,24.66,36.55,1.00,10.11,-25.84,-48,-6,-929,26.8,24.1,4.6,26.7,1.4,-30.4,5.73,2.40,-28.6,30.9
2012-08-25 01:28:00,1.0,1.8829,0.0008,375.73,0.28,150.9,31.0,138.04,31.80,24.66,36.55,1.07,7.84,-25.86,-48,-6,-929,26.8,23.9,4.5,26.7,1.4,-30.4,5.73,2.40,-29.1,30.9
2012-08-25 01:29:00,4.0,1.8484,0.0174,384.83,4.59,94.2,43.4,138.04,31.79,24.66,36.54,0.98,5.60,-25.87,-48,3,-928,26.9,24.1,4.6,26.7,1.4,-30.4,5.73,2.41,-30.8,30.7
2012-08-25 01:30:00,4.0,1.8332,0.0008,389.08,0.34,14.5,21.9,138.04,31.79,24.66,36.54,1.05,3.64,-25.88,-48,3,-929,26.8,23.8,4.4,26.7,1.4,-30.5,5.73,2.40,-32.5,30.6
2012-08-25 01:31:00,4.0,1.8331,0.0007,389.04,0.29,-0.4,2.5,138.04,31.79,24.66,36.55,1.09,1.68,-25.88,-48,3,-929,26.8,23.9,4.5,26.7,1.4,-30.4,5.73,2.41,-33.5,30.6
2012-08-25 01:32:00,4.0,1.8333,0.0008,389.07,0.32,-1.0,0.0,138.04,31.79,24.66,36.54,0.98,-0.15,-25.87,-48,3,-928,26.8,23.8,4.5,26.7,1.4,-30.4,5.73,2.41,-34.3,30.5
2012-08-25 01:33:00,4.0,1.8330,0.0010,389.16,0.26,-1.0,0.0,138.04,31.79,24.66,36.54,1.03,-1.88,-25.86,-48,3,-929,26.8,23.9,4.5,26.7,1.4,-30.4,5.73,2.41,-35.0,30.4
2012-08-25 01:34:00,4.0,1.8331,0.0009,389.17,0.33,-1.0,0.0,138.04,31.79,24.66,36.54,1.10,-3.35,-25.85,-48,3,-929,26.8,24.1,4.6,26.7,1.4,-30.4,5.73,2.41,-35.6,30.3
2012-08-25 01:35:00,4.0,1.8331,0.0008,389.23,0.25,-1.0,0.0,138.04,31.78,24.66,36.53,0.98,-4.70,-25.85,-48,3,-928,26.8,24.3,4.7,26.7,1.4,-30.4,5.73,2.42,-36.1,30.3
2012-08-25 01:36:00,5.0,1.7136,0.0583,361.86,13.33,-1.0,0.0,138.04,31.78,24.66,36.55,1.04,-5.13,-25.85,-48,36,-929,26.8,24.1,4.6,26.7,1.4,-30.4,5.73,2.43,-37.1,30.2
2012-08-25 01:37:00,5.0,1.6628,0.0008,350.16,0.27,-1.0,0.0,138.04,31.78,24.66,36.55,1.09,-6.92,-25.84,-48,36,-929,26.8,23.7,4.3,26.6,1.4,-30.5,5.73,2.42,-39.0,30.2
2012-08-25 01:38:00,5.0,1.6629,0.0009,350.10,0.29,-1.0,0.0,138.04,31.78,24.66,36.55,1.00,-8.34,-25.84,-48,36,-929,26.8,23.7,4.4,26.7,1.4,-30.4,5.73,2.42,-41.2,30.2
2012-08-25 01:39:00,5.0,1.6624,0.0009,350.00,0.27,-1.0,0.0,138.04,31.77,24.66,36.56,0.99,-9.63,-25.84,-48,36,-929,26.8,23.9,4.5,26.6,1.4,-30.5,5.73,2.42,-42.8,30.1
2012-08-25 01:40:00,5.0,1.6622,0.0007,350.13,0.25,-1.0,0.0,138.04,31.77,24.67,36.56,1.06,-10.78,-25.84,-48,36,-929,26.8,23.8,4.4,26.7,1.4,-30.5,5.73,2.42,-43.8,30.1
2012-08-25 01:41:00,5.0,1.6624,0.0008,350.06,0.30,-1.0,0.0,138.04,31.77,24.66,36.56,1.07,-11.89,-25.84,-48,36,-929,26.8,24.3,4.7,26.6,1.4,-30.4,5.73,2.42,-44.2,30.1
2012-08-25 01:42:00,5.0,1.6620,0.0008,350.04,0.23,-1.0,0.0,138.04,31.76,24.67,36.56,0.98,-12.91,-25.84,-48,36,-929,26.8,24.1,4.6,26.7,1.4,-30.4,5.73,2.42,-44.5,30.1
2012-08-25 01:43:00,2.0,1.7973,0.0688,380.37,15.95,-1.0,0.0,138.04,31.76,24.66,36.54,1.03,-13.88,-25.85,-48,-1,-929,26.8,23.8,4.4,26.7,1.4,-30.4,5.73,2.43,-41.0,30.1
2012-08-25 01:44:00,2.0,1.8589,0.0008,394.77,0.29,-1.0,0.0,138.04,31.76,24.66,36.54,1.09,-14.73,-25.84,-48,-1,-929,26.8,23.8,4.4,26.7,1.4,-30.4,5.73,2.42,-39.1,30.1
2012-08-25 01:45:00,2.0,1.8585,0.0008,394.94,0.28,-1.0,0.0,138.04,31.76,24.67,36.54,0.99,-15.58,-25.85,-48,-1,-929,26.8,23.8,4.4,26.7,1.4,-30.4,5.73,2.42,-38.7,30.1
2012-08-25 01:46:00,2.0,1.8589,0.0009,394.87,0.26,-1.0,0.0,138.04,31.75,24.66,36.54,0.98,-16.36,-25.86,-48,-1,-928,26.8,23.5,4.3,26.7,1.4,-30.4,5.73,2.42,-38.6,30.1
2012-08-25 01:47:00,2.0,1.8590,0.0009,394.82,0.25,-1.0,0.0,138.04,31.75,24.66,36.54,1.05,-17.11,-25.87,-48,-1,-929,26.9,23.6,4.4,26.7,1.4,-30.4,5.73,2.42,-38.7,30.0
2012-08-25 01:48:00,2.0,1.8591,0.0009,394.82,0.27,-1.0,0.0,138.04,31.75,24.66,36.54,1.08,-17.85,-25.87,-48,-1,-929,26.9,23.7,4.4,26.7,1.4,-30.4,5.73,2.42,-38.8,30.1
2012-08-25 01:49:00,2.0,1.8588,0.0009,394.90,0.28,-1.0,0.0,138.04,31.75,24.66,36.54,0.96,-18.53,-25.89,-48,-1,-929,26.9,23.8,4.4,26.7,1.4,-30.4,5.73,2.42,-38.9,30.1
2012-08-25 01:50:00,0.0,1.9327,0.0367,388.62,3.11,-0.8,1.7,138.04,31.74,24.66,36.54,1.01,-19.20,-25.90,-52,38,-929,26.9,23.6,4.4,26.7,1.4,-30.4,5.73,2.54,-35.4,30.1
2012-08-25 01:51:00,0.0,1.9644,0.0009,385.78,0.30,17.0,24.9,138.04,31.74,24.66,36.54,1.04,-19.79,-25.90,-52,39,-929,26.9,23.7,4.4,26.7,1.4,-30.1,5.73,2.60,-31.7,30.0
2012-08-25 01:52:00,0.0,1.9646,0.0009,385.87,0.29,56.4,34.1,138.04,31.74,24.66,36.54,1.06,-20.37,-25.92,-52,38,-929,26.9,23.6,4.4,26.7,1.4,-30.0,5.73,2.54,-30.4,30.1
2012-08-25 01:53:00,0.0,1.9642,0.0010,385.80,0.24,95.5,34.9,138.04,31.73,24.66,36.55,0.99,-20.90,-25.92,-52,39,-929,26.9,23.3,4.2,26.7,1.5,-29.9,5.73,2.58,-29.8,30.1
2012-08-25 01:54:00,0.0,1.9641,0.0009,385.81,0.28,116.7,23.9,138.04,31.73,24.66,36.54,0.98,-21.40,-25.92,-52,39,-928,26.9,23.4,4.2,26.8,1.5,-29.8,5.73,2.56,-29.4,30.1
2012-08-25 01:55:00,0.0,1.9639,0.0009,385.82,0.28,144.6,27.2,138.04,31.73,24.66,36.54,1.02,-21.88,-25.92,-52,39,-929,26.9,23.6,4.3,26.7,1.5,-29.8,5.73,2.56,-29.1,30.1
2012-08-25 01:56:00,0.0,1.9640,0.0009,385.80,0.29,147.6,29.0,138.04,31.73,24.66,36.54,1.05,-22.35,-25.93,-52,39,-929,26.8,23.4,4.2,26.7,1.5,-29.8,5.73,2.59,-28.9,30.0
2012-08-25 01:57:00,0.0,1.9640,0.0011,385.78,0.27,164.0,32.5,138.04,31.73,24.66,36.54,1.00,-22.78,-25.93,-52,39,-929,26.8,23.5,4.2,26.7,1.5,-29.8,5.73,2.54,-28.7,30.0
2012-08-25 01:58:00,0.0,1.9643,0.0010,385.90,0.29,164.4,28.6,138.04,31.72,24.66,36.54,0.96,-23.18,-25.93,-52,39,-929,26.8,23.7,4.4,26.7,1.5,-29.8,5.73,2.59,-28.6,30.0
2012-08-25 01:59:00,0.0,1.9644,0.0011,385.96,0.30,170.3,31.1,138.04,31.72,24.66,36.54,1.02,-23.57,-25.94,-52,39,-928,26.8,23.4,4.2,26.7,1.5,-29.8,5.73,2.55,-28.5,30.0
2012-08-25 02:00:00,0.0,1.9636,0.0010,385.85,0.35,184.3,31.0,138.04,31.72,24.66,36.54,1.06,-23.94,-25.94,-52,39,-929,26.8,23.4,4.2,26.7,1.5,-29.8,5.73,2.59,-28.4,30.0
2012-08-25 02:01:00,0.0,1.9639,0.0009,385.89,0.29,180.4,33.9,138.04,31.72,24.66,36.54,1.02,-24.27,-25.94,-52,39,-928,26.8,23.3,4.1,26.6,1.5,-29.8,5.73,2.56,-28.4,30.1
2012-08-25 02:02:00,0.0,1.9645,0.0009,385.86,0.27,187.6,28.7,138.04,31.72,24.66,36.54,0.96,-24.60,-25.95,-52,39,-929,26.8,23.4,4.2,26.6,1.5,-29.8,5.73,2.57,-28.3,30.0
2012-08-25 02:03:00,0.0,1.9640,0.0009,385.80,0.30,190.7,32.2,138.04,31.71,24.66,36.54,1.00,-24.90,-25.95,-52,39,-928,26.8,23.6,4.3,26.6,1.5,-29.8,5.73,2.58,-28.3,30.1
2012-08-25 02:04:00,0.0,1.9641,0.0009,385.79,0.33,197.0,26.9,138.04,31.71,24.66,36.55,1.04,-25.19,-25.96,-52,39,-928,26.8,23.5,4.2,26.6,1.5,-29.9,5.73,2.55,-28.2,30.0
2012-08-25 02:05:00,0.0,1.9641,0.0009,385.71,0.28,203.7,32.7,138.04,31.70,24.66,36.54,1.06,-25.46,-25.97,-52,39,-928,26.8,24.1,4.6,26.6,1.5,-29.9,5.73,2.59,-28.2,30.0
2012-08-25 02:06:00,0.0,1.9636,0.0008,385.74,0.38,203.6,31.5,138.04,31.70,24.66,36.55,0.98,-25.71,-25.97,-52,39,-928,26.8,23.9,4.4,26.6,1.5,-29.8,5.73,2.54,-28.1,30.0
2012-08-25 02:07:00,0.0,1.9640,0.0008,385.86,0.27,196.7,32.5,138.04,31.70,24.66,36.54,0.93,-25.91,-25.98,-52,39,-928,26.8,23.8,4.4,26.6,1.5,-29.9,5.73,2.60,-28.1,30.0
2012-08-25 02:08:00,0.0,1.9637,0.0009,385.79,0.32,195.4,31.7,138.04,31.70,24.66,36.55,0.98,-25.65,-25.97,-52,39,-928,26.7,23.6,4.2,26.6,1.5,-29.9,5.73,2.55,-28.1,30.0
2012-08-25 02:09:00,0.0,1.9638,0.0011,385.76,0.28,203.2,25.1,138.04,31.69,24.66,36.55,1.03,-25.73,-25.98,-52,39,-928,26.7,23.7,4.3,26.6,1.5,-29.8,5.73,2.58,-28.1,30.0
2012-08-25 02:10:00,0.0,1.9636,0.0008,385.70,0.29,205.8,31.5,138.04,31.69,24.66,36.55,1.05,-25.92,-25.99,-52,39,-928,26.7,24.1,4.5,26.6,1.5,-29.9,5.73,2.57,-28.0,30.0
2012-08-25 02:11:00,0.0,1.9633,0.0011,385.81,0.31,205.8,27.7,138.05,31.69,24.66,36.54,0.97,-25.71,-25.99,-52,39,-928,26.7,24.1,4.5,26.6,1.5,-29.9,5.73,2.57,-28.0,30.0
2012-08-25 02:12:00,0.0,1.9641,0.0010,385.84,0.32,202.7,31.9,138.04,31.69,24.66,36.54,0.97,-25.72,-26.00,-52,39,-928,26.7,24.1,4.5,26.6,1.5,-29.8,5.73,2.58,-28.0,30.1
2012-08-25 02:13:00,0.0,1.9641,0.0009,385.82,0.32,202.9,31.1,138.04,31.69,24.66,36.54,0.99,-25.91,-26.01,-52,39,-928,26.7,23.9,4.4,26.6,1.5,-29.9,5.73,2.55,-28.0,30.1
2012-08-25 02:14:00,0.0,1.9638,0.0009,385.98,0.25,216.4,33.4,138.04,31.69,24.66,36.54,1.00,-25.79,-26.02,-52,39,-928,26.7,23.7,4.2,26.5,1.5,-29.9,5.73,2.60,-28.0,30.0
2012-08-25 02:15:00,0.0,1.9637,0.0009,385.93,0.27,202.5,26.3,138.04,31.68,24.66,36.55,1.08,-25.70,-26.02,-52,39,-928,26.7,23.6,4.2,26.5,1.5,-29.9,5.73,2.54,-28.0,30.0
2012-08-25 02:16:00,0.0,1.9640,0.0008,385.81,0.32,208.6,28.9,138.04,31.68,24.66,36.54,1.00,-25.89,-26.03,-52,39,-928,26.7,24.1,4.5,26.5,1.5,-29.9,5.73,2.59,-28.0,30.0
2012-08-25 02:17:00,0.0,1.9637,0.0008,385.84,0.31,208.0,29.3,138.04,31.68,24.66,36.54,1.03,-25.88,-26.03,-52,39,-928,26.7,24.2,4.6,26.5,1.5,-29.9,5.73,2.55,-28.0,30.0
2012-08-25 02:18:00,0.0,1.9636,0.0009,385.61,0.30,217.5,31.7,138.04,31.67,24.66,36.54,0.97,-25.70,-26.04,-52,39,-928,26.7,24.3,4.6,26.5,1.4,-30.1,5.73,2.59,-28.0,30.1
2012-08-25 02:19:00,0.0,1.9641,0.0009,385.67,0.30,209.9,25.9,138.04,31.67,24.66,36.55,1.00,-25.86,-26.04,-52,39,-928,26.7,24.3,4.6,26.5,1.4,-30.1,5.73,2.57,-27.9,30.1
2012-08-25 02:20:00,0.0,1.9644,0.0008,385.72,0.33,209.2,23.2,138.04,31.67,24.66,36.54,0.90,-25.94,-26.05,-52,39,-928,26.7,24.2,4.6,26.5,1.4,-30.1,5.73,2.56,-27.9,30.1
2012-08-25 02:21:00,0.0,1.9647,0.0008,385.72,0.26,211.2,28.4,138.04,31.67,24.66,36.54,1.07,-25.71,-26.05,-52,39,-928,26.7,24.0,4.4,26.5,1.4,-30.1,5.73,2.58,-27.9,30.0